EWG785 EDDH-EDLW

Flight info

Callsign EWG785
Flight time 0h 40m
Altitude 24000
Route HABFU1G/33 HABFU Y348 MAWEQ Z718 OSNAD M170 HMM N853 DOMEG DOMEG2A
Aircraft A319/M-SDE3FGHIRWY/LB1

Departure

Time 2026-05-05 13:02
Airport Hamburg Helmut Schmidt Airport (EDDH)

Arrival

Time 2026-05-05 13:42
Airport Dortmund Airport (EDLW)
Time Latitude Longitude Altitude Speed Heading
2026-05-05 12:38 53.63005 10.00359 48 ft 0 kts 123°
2026-05-05 12:54 53.63013 10.00338 45 ft 4 kts 123°
2026-05-05 12:54 53.63027 10.00301 47 ft 2 kts 123°
2026-05-05 12:55 53.63040 10.00271 48 ft 4 kts 143°
2026-05-05 12:55 53.63063 10.00256 48 ft 4 kts 190°
2026-05-05 12:55 53.63070 10.00259 48 ft 0 kts 198°
2026-05-05 12:58 53.63067 10.00257 48 ft 3 kts 199°
2026-05-05 12:58 53.62983 10.00171 48 ft 20 kts 212°
2026-05-05 12:59 53.62913 10.00029 48 ft 12 kts 289°
2026-05-05 12:59 53.62897 9.99917 48 ft 11 kts 248°
2026-05-05 12:59 53.62893 9.99905 46 ft 0 kts 244°
2026-05-05 13:00 53.62888 9.99887 47 ft 8 kts 244°
2026-05-05 13:00 53.62889 9.99735 44 ft 17 kts 319°
2026-05-05 13:01 53.62932 9.99689 45 ft 0 kts 332°
2026-05-05 13:01 53.62934 9.99687 45 ft 2 kts 332°
2026-05-05 13:01 53.63080 9.99562 46 ft 53 kts 333°
2026-05-05 13:01 53.63586 9.99128 48 ft 110 kts 333°
2026-05-05 13:02 53.64413 9.98416 60 ft 159 kts 333°
2026-05-05 13:02 53.65448 9.97516 520 ft 168 kts 334°
2026-05-05 13:02 53.66498 9.96596 1152 ft 172 kts 335°
2026-05-05 13:02 53.67579 9.95657 1742 ft 181 kts 336°
2026-05-05 13:03 53.68748 9.94658 2187 ft 197 kts 335°
2026-05-05 13:03 53.70025 9.93554 2602 ft 217 kts 334°
2026-05-05 13:03 53.71466 9.92287 2914 ft 250 kts 334°
2026-05-05 13:03 53.73069 9.90874 3651 ft 264 kts 333°
2026-05-05 13:04 53.74679 9.89358 4677 ft 264 kts 324°
2026-05-05 13:04 53.75957 9.87117 5095 ft 268 kts 300°
2026-05-05 13:04 53.76535 9.84209 5025 ft 260 kts 274°
2026-05-05 13:04 53.76294 9.81180 5409 ft 265 kts 249°
2026-05-05 13:05 53.75322 9.78539 6408 ft 268 kts 227°
2026-05-05 13:05 53.73874 9.76591 7340 ft 271 kts 217°
2026-05-05 13:05 53.72333 9.74741 8306 ft 273 kts 216°
2026-05-05 13:05 53.70768 9.72891 9255 ft 276 kts 216°
2026-05-05 13:06 53.69184 9.71028 10140 ft 281 kts 216°
2026-05-05 13:06 53.64262 9.65219 11306 ft 330 kts 216°
2026-05-05 13:07 53.62364 9.62987 12054 ft 335 kts 216°
2026-05-05 13:07 53.60441 9.60729 12790 ft 339 kts 216°
2026-05-05 13:07 53.58493 9.58441 13481 ft 345 kts 216°
2026-05-05 13:07 53.56511 9.56117 14138 ft 349 kts 216°
2026-05-05 13:08 53.54510 9.53773 14801 ft 352 kts 217°
2026-05-05 13:08 53.52493 9.51412 15486 ft 355 kts 217°
2026-05-05 13:08 53.50453 9.49023 16167 ft 357 kts 217°
2026-05-05 13:08 53.48417 9.46637 16842 ft 360 kts 217°
2026-05-05 13:09 53.46354 9.44224 17519 ft 362 kts 218°
2026-05-05 13:09 53.44277 9.41799 18199 ft 365 kts 218°
2026-05-05 13:09 53.42185 9.39358 18789 ft 368 kts 218°
2026-05-05 13:09 53.40079 9.36906 19405 ft 370 kts 218°
2026-05-05 13:10 53.37957 9.34443 20022 ft 372 kts 217°
2026-05-05 13:10 53.35819 9.31966 20573 ft 376 kts 217°
2026-05-05 13:10 53.33618 9.29580 21150 ft 380 kts 211°
2026-05-05 13:10 53.31174 9.27819 21727 ft 386 kts 200°
2026-05-05 13:11 53.28535 9.26820 22296 ft 391 kts 193°
2026-05-05 13:11 53.25847 9.26037 22852 ft 393 kts 193°
2026-05-05 13:11 53.23146 9.25239 23402 ft 395 kts 193°
2026-05-05 13:11 53.20464 9.24442 23800 ft 397 kts 193°
2026-05-05 13:12 53.17709 9.23620 23905 ft 399 kts 193°
2026-05-05 13:12 53.14952 9.22792 23936 ft 405 kts 193°
2026-05-05 13:12 53.12170 9.21959 23937 ft 407 kts 193°
2026-05-05 13:12 53.09383 9.21129 23937 ft 407 kts 193°
2026-05-05 13:13 53.06633 9.20312 23938 ft 407 kts 193°
2026-05-05 13:13 53.03841 9.19490 23937 ft 407 kts 193°
2026-05-05 13:13 53.01013 9.18661 23937 ft 407 kts 193°
2026-05-05 13:13 52.98262 9.17852 23937 ft 407 kts 193°
2026-05-05 13:14 52.95492 9.16792 23934 ft 404 kts 201°
2026-05-05 13:14 52.92922 9.15044 23935 ft 401 kts 210°
2026-05-05 13:14 52.90461 9.12882 23946 ft 400 kts 211°
2026-05-05 13:14 52.88003 9.10716 23928 ft 400 kts 210°
2026-05-05 13:15 52.85540 9.08550 23918 ft 401 kts 210°
2026-05-05 13:15 52.83078 9.06389 23916 ft 401 kts 210°
2026-05-05 13:15 52.80615 9.04233 23914 ft 401 kts 210°
2026-05-05 13:15 52.78147 9.02077 23918 ft 401 kts 210°
2026-05-05 13:16 52.75677 8.99920 23919 ft 402 kts 210°
2026-05-05 13:16 52.73204 8.97764 23912 ft 402 kts 210°
2026-05-05 13:16 52.70734 8.95619 23901 ft 401 kts 210°
2026-05-05 13:16 52.68265 8.93479 23904 ft 401 kts 210°
2026-05-05 13:17 52.65797 8.91340 23882 ft 401 kts 210°
2026-05-05 13:17 52.63328 8.89199 23891 ft 401 kts 210°
2026-05-05 13:17 52.60855 8.87055 23891 ft 402 kts 210°
2026-05-05 13:17 52.58385 8.84913 23893 ft 402 kts 210°
2026-05-05 13:18 52.55912 8.82770 23895 ft 402 kts 210°
2026-05-05 13:18 52.53438 8.80630 23898 ft 402 kts 210°
2026-05-05 13:18 52.50962 8.78494 23901 ft 402 kts 210°
2026-05-05 13:18 52.48488 8.76368 23903 ft 402 kts 210°
2026-05-05 13:19 52.46011 8.74245 23904 ft 402 kts 209°
2026-05-05 13:19 52.43534 8.72125 23890 ft 402 kts 209°
2026-05-05 13:19 52.41053 8.69999 23892 ft 402 kts 209°
2026-05-05 13:19 52.38575 8.67879 23893 ft 402 kts 209°
2026-05-05 13:20 52.36095 8.65764 23897 ft 402 kts 209°
2026-05-05 13:20 52.33612 8.63647 23894 ft 402 kts 209°
2026-05-05 13:20 52.31185 8.61497 23894 ft 402 kts 213°
2026-05-05 13:20 52.28971 8.58739 23895 ft 400 kts 224°
2026-05-05 13:21 52.27128 8.55347 23892 ft 400 kts 234°
2026-05-05 13:21 52.25707 8.51453 23890 ft 400 kts 244°
2026-05-05 13:21 52.24649 8.47252 23891 ft 400 kts 248°
2026-05-05 13:21 52.23609 8.43012 23710 ft 404 kts 247°
2026-05-05 13:22 52.22563 8.38785 23129 ft 400 kts 247°
2026-05-05 13:22 52.21522 8.34592 22504 ft 397 kts 247°
2026-05-05 13:22 52.20395 8.30522 21909 ft 392 kts 240°
2026-05-05 13:22 52.18897 8.26839 21316 ft 388 kts 231°
2026-05-05 13:23 52.17091 8.23598 20743 ft 385 kts 225°
2026-05-05 13:23 52.15243 8.20472 20202 ft 382 kts 226°
2026-05-05 13:23 52.13411 8.17368 19663 ft 379 kts 226°
2026-05-05 13:23 52.11599 8.14300 19144 ft 375 kts 225°
2026-05-05 13:24 52.09800 8.11253 18630 ft 372 kts 225°
2026-05-05 13:24 52.08016 8.08235 18111 ft 368 kts 226°
2026-05-05 13:24 52.06252 8.05263 17674 ft 361 kts 225°
2026-05-05 13:24 52.04520 8.02352 17171 ft 357 kts 225°
2026-05-05 13:25 52.02805 7.99470 16648 ft 353 kts 225°
2026-05-05 13:25 52.01105 7.96608 16114 ft 351 kts 225°
2026-05-05 13:25 51.99418 7.93773 15579 ft 348 kts 225°
2026-05-05 13:25 51.97739 7.90957 15040 ft 345 kts 225°
2026-05-05 13:26 51.96075 7.88171 14488 ft 343 kts 225°
2026-05-05 13:26 51.94421 7.85407 13945 ft 341 kts 225°
2026-05-05 13:26 51.92775 7.82656 13363 ft 339 kts 225°
2026-05-05 13:26 51.91136 7.79919 12794 ft 337 kts 225°
2026-05-05 13:27 51.89509 7.77208 12242 ft 335 kts 225°
2026-05-05 13:27 51.87889 7.74514 11691 ft 333 kts 225°
2026-05-05 13:27 51.86247 7.71896 11139 ft 330 kts 220°
2026-05-05 13:27 51.84382 7.69782 10737 ft 323 kts 208°
2026-05-05 13:28 51.82426 7.68170 10607 ft 308 kts 206°
2026-05-05 13:28 51.80555 7.66632 10481 ft 295 kts 206°
2026-05-05 13:28 51.78755 7.65144 10294 ft 286 kts 206°
2026-05-05 13:28 51.76994 7.63693 10050 ft 282 kts 206°
2026-05-05 13:29 51.75258 7.62266 9879 ft 279 kts 206°
2026-05-05 13:29 51.73535 7.60849 9746 ft 279 kts 206°
2026-05-05 13:29 51.71764 7.59614 9615 ft 277 kts 195°
2026-05-05 13:29 51.69855 7.59122 9217 ft 279 kts 180°
2026-05-05 13:30 51.67918 7.59415 8696 ft 285 kts 172°
2026-05-05 13:30 51.65967 7.59884 8473 ft 280 kts 172°
2026-05-05 13:30 51.64082 7.60343 8170 ft 276 kts 172°
2026-05-05 13:30 51.62197 7.60801 7619 ft 273 kts 172°
2026-05-05 13:31 51.60295 7.61259 7015 ft 272 kts 172°
2026-05-05 13:31 51.58424 7.61710 6411 ft 272 kts 172°
2026-05-05 13:31 51.56581 7.62151 5813 ft 271 kts 172°
2026-05-05 13:31 51.54717 7.62333 5218 ft 267 kts 187°
2026-05-05 13:32 51.52957 7.61511 4673 ft 263 kts 207°
2026-05-05 13:32 51.51498 7.59759 4031 ft 264 kts 227°
2026-05-05 13:32 51.50498 7.57324 3633 ft 257 kts 240°
2026-05-05 13:32 51.49652 7.54900 3483 ft 240 kts 240°
2026-05-05 13:33 51.48854 7.52660 3371 ft 224 kts 239°
2026-05-05 13:33 51.48090 7.50531 3269 ft 219 kts 239°
2026-05-05 13:33 51.47335 7.48427 3181 ft 217 kts 240°
2026-05-05 13:33 51.46582 7.46324 3086 ft 218 kts 239°
2026-05-05 13:34 51.45826 7.44212 2981 ft 218 kts 240°
2026-05-05 13:34 51.45072 7.42102 2886 ft 219 kts 239°
2026-05-05 13:34 51.44315 7.39973 2834 ft 221 kts 240°
2026-05-05 13:34 51.43557 7.37841 2789 ft 220 kts 240°
2026-05-05 13:35 51.42803 7.35717 2729 ft 220 kts 240°
2026-05-05 13:35 51.42048 7.33600 2674 ft 218 kts 238°
2026-05-05 13:35 51.40969 7.31962 2567 ft 217 kts 203°
2026-05-05 13:35 51.39508 7.31684 2484 ft 212 kts 163°
2026-05-05 13:36 51.38262 7.32832 2482 ft 208 kts 126°
2026-05-05 13:36 51.37689 7.34824 2473 ft 191 kts 94°
2026-05-05 13:36 51.37875 7.36836 2477 ft 180 kts 63°
2026-05-05 13:36 51.38669 7.38217 2483 ft 168 kts 27°
2026-05-05 13:37 51.39693 7.38971 2476 ft 156 kts 32°
2026-05-05 13:37 51.40595 7.39812 2465 ft 146 kts 31°
2026-05-05 13:37 51.41458 7.40619 2474 ft 141 kts 31°
2026-05-05 13:37 51.42300 7.41408 2486 ft 140 kts 32°
2026-05-05 13:38 51.43135 7.42190 2480 ft 139 kts 32°
2026-05-05 13:38 51.43979 7.42981 2485 ft 140 kts 31°
2026-05-05 13:38 51.44814 7.43764 2483 ft 142 kts 31°
2026-05-05 13:38 51.45598 7.44744 2495 ft 141 kts 45°
2026-05-05 13:39 51.46230 7.45925 2453 ft 137 kts 53°
2026-05-05 13:39 51.46771 7.47166 2322 ft 136 kts 54°
2026-05-05 13:39 51.47280 7.48461 2169 ft 139 kts 57°
2026-05-05 13:39 51.47774 7.49788 1996 ft 139 kts 58°
2026-05-05 13:40 51.48256 7.51117 1801 ft 137 kts 58°
2026-05-05 13:40 51.48730 7.52441 1640 ft 135 kts 56°
2026-05-05 13:40 51.49177 7.53702 1437 ft 128 kts 57°
2026-05-05 13:40 51.49612 7.54929 1263 ft 127 kts 57°
2026-05-05 13:41 51.50045 7.56154 1092 ft 126 kts 58°
2026-05-05 13:41 51.50480 7.57386 920 ft 127 kts 57°
2026-05-05 13:41 51.50916 7.58640 736 ft 129 kts 58°
2026-05-05 13:41 51.51354 7.59879 553 ft 127 kts 55°
2026-05-05 13:42 51.51792 7.61106 418 ft 123 kts 56°
2026-05-05 13:42 51.52057 7.61823 414 ft 101 kts 62°
2026-05-05 13:42 51.52310 7.62573 415 ft 47 kts 60°
2026-05-05 13:42 51.52310 7.62711 414 ft 15 kts 137°
2026-05-05 13:43 51.52179 7.62741 410 ft 23 kts 225°
2026-05-05 13:43 51.52095 7.62515 411 ft 23 kts 240°
2026-05-05 13:43 51.52011 7.62283 415 ft 25 kts 240°
2026-05-05 13:43 51.51895 7.61955 410 ft 26 kts 241°
2026-05-05 13:44 51.51834 7.61779 413 ft 27 kts 240°
2026-05-05 13:44 51.51748 7.61532 423 ft 24 kts 240°
2026-05-05 13:44 51.51677 7.61347 433 ft 5 kts 237°
2026-05-05 13:44 51.51660 7.61316 429 ft 0 kts 202°
2026-05-05 13:45 51.51642 7.61341 424 ft 12 kts 129°
2026-05-05 13:45 51.51617 7.61385 429 ft 6 kts 210°
2026-05-05 13:45 51.51617 7.61344 425 ft 0 kts 319°
2026-05-05 13:45 51.51617 7.61343 424 ft 0 kts 315°